Location: Britannia Beach
(45.3521°N, 62.9901°W)
Time: 10:38:58
(UTC+00:00)

X-37B - Pass Details

Date: 08 August 2021
Orbit: 381 x 393 km, 45.0° (Epoch: 29 August)

Event Time Altitude Azimuth Distance (km) Brightness Sun altitude
Exits shadow 06:14:17 20° 90° (E) 960 2.9 -23.1°
Drops below altitude 10° 06:15:23 10° 85° (E) 1,398 3.8 -23.0°
Sets 06:17:28 0° 82° (E) 2,252 5.0 -22.9°
